• In Russia
  • List of Countries
  • For 7 days
  • Water Temperature
  • Satellite Maps
  • Weather Map
  • Weather Widgets
  • user-avatar
    Login

    Hourly Weather Horonhoy

    Today, 25 September, Tuesday

    Time Temperature Precipitation Wind Pressure Humidity
    00:00 +7°C° 0 mm 0 mps 710 mmHg 72%
    01:00 +7°C° 0 mm 0 mps 710 mmHg 73%
    02:00 +7°C° 0 mm 0 mps 710 mmHg 74%
    03:00 +6°C° 0 mm 0 mps 710 mmHg 75%
    04:00 +6°C° 0 mm 0 mps 710 mmHg 76%
    05:00 +8°C° 0 mm 1 mps 710 mmHg 74%
    06:00 +8°C° 0 mm 1 mps 710 mmHg 72%
    07:00 +9°C° 0 mm 1 mps 710 mmHg 67%
    08:00 +11°C° 0 mm 1 mps 710 mmHg 62%
    09:00 +13°C° 0 mm 1 mps 710 mmHg 56%
    10:00 +15°C° 0 mm 2 mps 710 mmHg 50%
    11:00 +16°C° 0 mm 2 mps 709 mmHg 47%
    12:00 +18°C° 0 mm 2 mps 709 mmHg 44%
    13:00 +19°C° 0 mm 2 mps 709 mmHg 41%
    14:00 +19°C° 0 mm 2 mps 709 mmHg 42%
    15:00 +20°C° 0 mm 2 mps 708 mmHg 43%
    16:00 +20°C° 0 mm 2 mps 708 mmHg 44%
    17:00 +17°C° 0 mm 2 mps 708 mmHg 52%
    18:00 +15°C° 0 mm 1 mps 708 mmHg 60%
    19:00 +13°C° 0 mm 1 mps 708 mmHg 68%
    20:00 +12°C° 0 mm 1 mps 708 mmHg 69%
    21:00 +12°C° 0 mm 1 mps 708 mmHg 71%
    22:00 +11°C° 0 mm 1 mps 708 mmHg 72%
    23:00 +11°C° 0 mm 1 mps 707 mmHg 73%

    Tomorrow, 26 September, Wednesday

    Time Temperature Precipitation Wind Pressure Humidity
    00:00 +10°C° 0 mm 0 mps 707 mmHg 74%
    01:00 +9°C° 0 mm 0 mps 707 mmHg 74%
    02:00 +9°C° 0 mm 0 mps 707 mmHg 75%
    03:00 +9°C° 0 mm 0 mps 707 mmHg 77%
    04:00 +9°C° 0 mm 0 mps 706 mmHg 78%
    05:00 +10°C° 0 mm 1 mps 707 mmHg 76%
    06:00 +11°C° 0 mm 1 mps 707 mmHg 75%
    07:00 +11°C° 0 mm 1 mps 707 mmHg 73%
    08:00 +13°C° 0 mm 1 mps 707 mmHg 68%
    09:00 +14°C° 0 mm 1 mps 707 mmHg 62%
    10:00 +16°C° 0 mm 1 mps 707 mmHg 57%
    11:00 +16°C° 0 mm 2 mps 706 mmHg 55%
    12:00 +17°C° 0 mm 2 mps 706 mmHg 54%
    13:00 +18°C° 0 mm 3 mps 706 mmHg 52%
    14:00 +17°C° 0.1 mm 4 mps 706 mmHg 57%
    15:00 +15°C° 0.1 mm 5 mps 706 mmHg 61%
    16:00 +12°C° 0.1 mm 7 mps 706 mmHg 66%
    17:00 +11°C° 0.1 mm 7 mps 706 mmHg 68%
    18:00 +9°C° 0.1 mm 7 mps 706 mmHg 71%
    19:00 +8°C° 0.1 mm 7 mps 707 mmHg 73%
    20:00 +8°C° 0.3 mm 6 mps 707 mmHg 75%
    21:00 +7°C° 0.3 mm 5 mps 707 mmHg 77%
    22:00 +7°C° 0.3 mm 5 mps 707 mmHg 79%
    23:00 +7°C° 0.9 mm 5 mps 707 mmHg 80%

    Day after tomorrow, 27 September, Thursday

    Time Temperature Precipitation Wind Pressure Humidity
    00:00 +7°C° 0.9 mm 5 mps 707 mmHg 81%
    01:00 +6°C° 0.9 mm 4 mps 707 mmHg 82%
    02:00 +6°C° 0.5 mm 4 mps 708 mmHg 81%
    03:00 +6°C° 0.5 mm 4 mps 708 mmHg 79%
    04:00 +6°C° 0.5 mm 4 mps 709 mmHg 78%
    05:00 +5°C° 0 mm 4 mps 709 mmHg 77%
    06:00 +5°C° 0 mm 3 mps 710 mmHg 75%
    07:00 +5°C° 0 mm 3 mps 710 mmHg 73%
    08:00 +6°C° 0 mm 4 mps 710 mmHg 67%
    09:00 +6°C° 0 mm 5 mps 711 mmHg 61%
    10:00 +7°C° 0 mm 6 mps 711 mmHg 54%
    11:00 +7°C° 0 mm 6 mps 710 mmHg 53%
    12:00 +8°C° 0 mm 6 mps 710 mmHg 51%
    13:00 +8°C° 0 mm 5 mps 709 mmHg 49%
    14:00 +8°C° 0.1 mm 5 mps 709 mmHg 51%
    15:00 +8°C° 0.1 mm 5 mps 709 mmHg 52%
    16:00 +7°C° 0.1 mm 5 mps 709 mmHg 54%
    17:00 +6°C° 0 mm 4 mps 709 mmHg 59%
    18:00 +5°C° 0 mm 3 mps 709 mmHg 63%
    19:00 +5°C° 0 mm 2 mps 709 mmHg 68%
    20:00 +5°C° 0 mm 2 mps 709 mmHg 70%
    21:00 +5°C° 0 mm 2 mps 709 mmHg 72%
    22:00 +4°C° 0 mm 2 mps 709 mmHg 74%
    23:00 +4°C° 0 mm 2 mps 708 mmHg 75%

    28 September, Friday

    Time Temperature Precipitation Wind Pressure Humidity
    00:00 +4°C° 0 mm 2 mps 708 mmHg 75%
    01:00 +4°C° 0 mm 2 mps 708 mmHg 76%
    02:00 +3°C° 0.1 mm 3 mps 708 mmHg 75%
    03:00 +3°C° 0.1 mm 3 mps 708 mmHg 75%
    04:00 +3°C° 0.1 mm 3 mps 708 mmHg 74%
    05:00 +4°C° 0.1 mm 3 mps 709 mmHg 73%
    06:00 +4°C° 0.1 mm 4 mps 709 mmHg 72%
    07:00 +4°C° 0.1 mm 4 mps 709 mmHg 70%
    08:00 +5°C° 0.1 mm 5 mps 709 mmHg 65%
    09:00 +7°C° 0.1 mm 6 mps 709 mmHg 59%
    10:00 +8°C° 0.1 mm 7 mps 710 mmHg 53%
    11:00 +8°C° 0 mm 7 mps 710 mmHg 52%
    12:00 +8°C° 0 mm 7 mps 710 mmHg 51%
    13:00 +9°C° 0 mm 7 mps 710 mmHg 49%
    14:00 +8°C° 0.1 mm 6 mps 710 mmHg 52%
    15:00 +8°C° 0.1 mm 5 mps 711 mmHg 55%
    16:00 +7°C° 0.1 mm 5 mps 711 mmHg 57%
    17:00 +7°C° 0.1 mm 4 mps 712 mmHg 62%
    18:00 +7°C° 0.1 mm 3 mps 713 mmHg 67%
    19:00 +6°C° 0.1 mm 2 mps 713 mmHg 72%
    20:00 +6°C° 0 mm 2 mps 714 mmHg 72%
    21:00 +6°C° 0 mm 2 mps 714 mmHg 72%
    22:00 +6°C° 0 mm 2 mps 715 mmHg 73%
    23:00 +5°C° 0.1 mm 2 mps 715 mmHg 74%

    29 September, Saturday

    Time Temperature Precipitation Wind Pressure Humidity
    00:00 +5°C° 0.1 mm 2 mps 715 mmHg 76%
    01:00 +5°C° 0.1 mm 2 mps 715 mmHg 77%
    02:00 +5°C° 0.1 mm 2 mps 715 mmHg 78%
    03:00 +5°C° 0.1 mm 2 mps 715 mmHg 78%
    04:00 +5°C° 0.1 mm 2 mps 716 mmHg 79%
    05:00 +5°C° 0.1 mm 2 mps 716 mmHg 79%
    06:00 +5°C° 0.1 mm 2 mps 716 mmHg 79%
    07:00 +6°C° 0.1 mm 2 mps 717 mmHg 79%
    08:00 +7°C° 0 mm 2 mps 717 mmHg 76%
    09:00 +7°C° 0 mm 2 mps 717 mmHg 73%
    10:00 +8°C° 0 mm 2 mps 717 mmHg 71%
    11:00 +10°C° 0 mm 2 mps 717 mmHg 68%
    12:00 +12°C° 0 mm 2 mps 717 mmHg 65%
    13:00 +13°C° 0 mm 2 mps 716 mmHg 63%
    14:00 +13°C° 0 mm 2 mps 717 mmHg 63%
    15:00 +13°C° 0 mm 1 mps 717 mmHg 63%
    16:00 +13°C° 0 mm 1 mps 717 mmHg 63%
    17:00 +12°C° 0 mm 1 mps 717 mmHg 69%
    18:00 +10°C° 0 mm 1 mps 717 mmHg 76%
    19:00 +9°C° 0 mm 1 mps 717 mmHg 82%
    20:00 +8°C° 0 mm 1 mps 717 mmHg 84%
    21:00 +7°C° 0 mm 1 mps 717 mmHg 86%
    22:00 +7°C° 0 mm 1 mps 717 mmHg 88%
    23:00 +6°C° 0 mm 1 mps 717 mmHg 89%

    30 September, Sunday

    Time Temperature Precipitation Wind Pressure Humidity
    00:00 +6°C° 0 mm 1 mps 717 mmHg 90%
    01:00 +6°C° 0 mm 1 mps 717 mmHg 91%
    02:00 +4°C° 0 mm 2 mps 717 mmHg 91%
    03:00 +4°C° 0 mm 2 mps 717 mmHg 92%
    04:00 +4°C° 0 mm 2 mps 717 mmHg 93%
    05:00 +4°C° 0 mm 2 mps 717 mmHg 91%
    06:00 +4°C° 0 mm 2 mps 717 mmHg 90%
    07:00 +5°C° 0 mm 2 mps 717 mmHg 89%
    08:00 +7°C° 0 mm 2 mps 717 mmHg 80%
    09:00 +9°C° 0 mm 3 mps 716 mmHg 71%
    10:00 +11°C° 0 mm 3 mps 716 mmHg 62%
    11:00 +13°C° 0 mm 3 mps 716 mmHg 56%
    12:00 +14°C° 0 mm 3 mps 715 mmHg 51%
    13:00 +16°C° 0 mm 3 mps 715 mmHg 45%
    14:00 +16°C° 0 mm 2 mps 715 mmHg 45%
    15:00 +17°C° 0 mm 2 mps 715 mmHg 45%
    16:00 +18°C° 0 mm 1 mps 715 mmHg 44%
    17:00 +14°C° 0 mm 1 mps 714 mmHg 53%
    18:00 +12°C° 0 mm 1 mps 714 mmHg 61%
    19:00 +10°C° 0 mm 1 mps 714 mmHg 69%
    20:00 +9°C° 0 mm 1 mps 714 mmHg 71%
    21:00 +9°C° 0 mm 1 mps 715 mmHg 73%
    22:00 +8°C° 0 mm 1 mps 715 mmHg 75%
    23:00 +8°C° 0 mm 1 mps 714 mmHg 76%
    Show more